When you browse on this site, cookies collect data to enhance your experience and personalize the content and advertising you see.
Visit our Privacy Policy to learn more. By continuing to use the site, you agree to this use of cookies and data.
  • In Portugal
  • List of Countries
  • For 7 days
  • Water Temperature
  • Satellite Maps
  • Weather Map
  • Weather Widgets
  • user-avatar
    Login

    Hourly Weather Garlino

    Today, 26 June, Wednesday

    Time Temperature Precipitation Wind Pressure Humidity
    00:00 +21°C° 0.2 mm 3 mps 755 mmHg 87%
    01:00 +21°C° 0 mm 3 mps 755 mmHg 90%
    02:00 +21°C° 0.3 mm 3 mps 754 mmHg 92%
    03:00 +21°C° 0.3 mm 3 mps 754 mmHg 94%
    04:00 +21°C° 0.3 mm 3 mps 754 mmHg 97%
    05:00 +22°C° 0 mm 3 mps 754 mmHg 93%
    06:00 +25°C° 0 mm 3 mps 754 mmHg 89%
    07:00 +26°C° 0 mm 3 mps 754 mmHg 83%
    08:00 +28°C° 0 mm 4 mps 753 mmHg 78%
    09:00 +29°C° 0 mm 4 mps 753 mmHg 73%
    10:00 +32°C° 0 mm 4 mps 752 mmHg 68%
    11:00 +32°C° 0 mm 4 mps 752 mmHg 64%
    12:00 +33°C° 0 mm 5 mps 752 mmHg 61%
    13:00 +33°C° 0 mm 5 mps 752 mmHg 58%
    14:00 +33°C° 0 mm 5 mps 751 mmHg 59%
    15:00 +33°C° 0 mm 5 mps 750 mmHg 61%
    16:00 +33°C° 0 mm 4 mps 750 mmHg 63%
    17:00 +32°C° 0.4 mm 4 mps 749 mmHg 68%
    18:00 +29°C° 0.4 mm 4 mps 749 mmHg 74%
    19:00 +28°C° 0.4 mm 4 mps 749 mmHg 79%
    20:00 +27°C° 0.1 mm 3 mps 748 mmHg 82%
    21:00 +25°C° 0.1 mm 3 mps 748 mmHg 84%
    22:00 +24°C° 0.1 mm 3 mps 748 mmHg 86%
    23:00 +24°C° 0.1 mm 3 mps 748 mmHg 88%

    Tomorrow, 27 June, Thursday

    Time Temperature Precipitation Wind Pressure Humidity
    00:00 +22°C° 0.1 mm 4 mps 748 mmHg 90%
    01:00 +21°C° 0.1 mm 5 mps 748 mmHg 92%
    02:00 +20°C° 0 mm 5 mps 748 mmHg 91%
    03:00 +19°C° 0 mm 6 mps 747 mmHg 91%
    04:00 +17°C° 0 mm 6 mps 747 mmHg 91%
    05:00 +17°C° 0 mm 7 mps 747 mmHg 88%
    06:00 +18°C° 0 mm 7 mps 748 mmHg 85%
    07:00 +18°C° 0 mm 8 mps 748 mmHg 81%
    08:00 +18°C° 0 mm 8 mps 748 mmHg 79%
    09:00 +18°C° 0 mm 7 mps 748 mmHg 77%
    10:00 +17°C° 0 mm 7 mps 748 mmHg 75%
    11:00 +18°C° 0.1 mm 7 mps 748 mmHg 75%
    12:00 +18°C° 0.1 mm 7 mps 748 mmHg 75%
    13:00 +20°C° 0.1 mm 7 mps 748 mmHg 75%
    14:00 +20°C° 0.2 mm 7 mps 748 mmHg 75%
    15:00 +20°C° 0.2 mm 7 mps 748 mmHg 76%
    16:00 +20°C° 0.2 mm 7 mps 748 mmHg 77%
    17:00 +19°C° 0.3 mm 6 mps 749 mmHg 80%
    18:00 +17°C° 0.3 mm 6 mps 749 mmHg 84%
    19:00 +16°C° 0.3 mm 5 mps 749 mmHg 87%
    20:00 +15°C° 0 mm 5 mps 749 mmHg 88%
    21:00 +13°C° 0 mm 5 mps 750 mmHg 90%
    22:00 +12°C° 0 mm 5 mps 750 mmHg 91%
    23:00 +12°C° 0 mm 4 mps 751 mmHg 91%

    Day after tomorrow, 28 June, Friday

    Time Temperature Precipitation Wind Pressure Humidity
    00:00 +11°C° 0 mm 4 mps 751 mmHg 91%
    01:00 +10°C° 0 mm 4 mps 751 mmHg 91%
    02:00 +10°C° 0 mm 4 mps 751 mmHg 90%
    03:00 +10°C° 0 mm 4 mps 751 mmHg 90%
    04:00 +10°C° 0 mm 4 mps 751 mmHg 90%
    05:00 +12°C° 0 mm 4 mps 751 mmHg 84%
    06:00 +14°C° 0 mm 5 mps 751 mmHg 79%
    07:00 +16°C° 0 mm 5 mps 751 mmHg 73%
    08:00 +17°C° 0.1 mm 6 mps 751 mmHg 68%
    09:00 +19°C° 0.1 mm 6 mps 751 mmHg 64%
    10:00 +20°C° 0.1 mm 7 mps 751 mmHg 60%
    11:00 +20°C° 0 mm 7 mps 751 mmHg 58%
    12:00 +20°C° 0 mm 7 mps 751 mmHg 56%
    13:00 +21°C° 0 mm 7 mps 751 mmHg 54%
    14:00 +20°C° 0 mm 7 mps 751 mmHg 54%
    15:00 +20°C° 0 mm 7 mps 751 mmHg 54%
    16:00 +20°C° 0 mm 7 mps 751 mmHg 55%
    17:00 +17°C° 0 mm 6 mps 751 mmHg 61%
    18:00 +16°C° 0 mm 5 mps 751 mmHg 67%
    19:00 +14°C° 0 mm 4 mps 751 mmHg 73%
    20:00 +13°C° 0 mm 4 mps 752 mmHg 74%
    21:00 +12°C° 0 mm 4 mps 752 mmHg 75%
    22:00 +11°C° 0 mm 4 mps 752 mmHg 76%
    23:00 +11°C° 0 mm 4 mps 752 mmHg 78%

    29 June, Saturday

    Time Temperature Precipitation Wind Pressure Humidity
    00:00 +10°C° 0 mm 4 mps 752 mmHg 79%
    01:00 +10°C° 0 mm 3 mps 752 mmHg 81%
    02:00 +10°C° 0 mm 3 mps 752 mmHg 81%
    03:00 +10°C° 0 mm 3 mps 752 mmHg 82%
    04:00 +10°C° 0 mm 3 mps 752 mmHg 83%
    05:00 +12°C° 0 mm 3 mps 752 mmHg 79%
    06:00 +13°C° 0 mm 3 mps 752 mmHg 75%
    07:00 +16°C° 0 mm 3 mps 752 mmHg 71%
    08:00 +18°C° 0 mm 4 mps 752 mmHg 68%
    09:00 +19°C° 0 mm 4 mps 752 mmHg 65%
    10:00 +21°C° 0 mm 4 mps 752 mmHg 62%
    11:00 +22°C° 0 mm 4 mps 752 mmHg 61%
    12:00 +23°C° 0 mm 4 mps 752 mmHg 60%
    13:00 +23°C° 0 mm 5 mps 751 mmHg 59%
    14:00 +23°C° 0.2 mm 5 mps 751 mmHg 60%
    15:00 +23°C° 0.2 mm 5 mps 751 mmHg 62%
    16:00 +23°C° 0.2 mm 5 mps 751 mmHg 64%
    17:00 +23°C° 0.1 mm 4 mps 751 mmHg 67%
    18:00 +22°C° 0.1 mm 3 mps 751 mmHg 72%
    19:00 +21°C° 0.1 mm 2 mps 751 mmHg 78%
    20:00 +19°C° 0 mm 2 mps 751 mmHg 82%
    21:00 +18°C° 0 mm 2 mps 751 mmHg 85%
    22:00 +18°C° 0 mm 1 mps 751 mmHg 88%
    23:00 +16°C° 0 mm 1 mps 751 mmHg 89%

    30 June, Sunday

    Time Temperature Precipitation Wind Pressure Humidity
    00:00 +16°C° 0 mm 1 mps 751 mmHg 89%
    01:00 +16°C° 0 mm 1 mps 751 mmHg 90%
    02:00 +15°C° 0 mm 2 mps 751 mmHg 90%
    03:00 +15°C° 0 mm 2 mps 751 mmHg 90%
    04:00 +15°C° 0 mm 2 mps 750 mmHg 90%
    05:00 +17°C° 0 mm 2 mps 750 mmHg 85%
    06:00 +18°C° 0 mm 2 mps 750 mmHg 80%
    07:00 +20°C° 0 mm 3 mps 750 mmHg 75%
    08:00 +22°C° 0 mm 3 mps 750 mmHg 70%
    09:00 +24°C° 0 mm 3 mps 750 mmHg 66%
    10:00 +26°C° 0 mm 3 mps 750 mmHg 61%
    11:00 +27°C° 0 mm 4 mps 750 mmHg 58%
    12:00 +28°C° 0 mm 4 mps 750 mmHg 56%
    13:00 +28°C° 0 mm 4 mps 749 mmHg 54%
    14:00 +28°C° 0 mm 4 mps 749 mmHg 55%
    15:00 +29°C° 0 mm 4 mps 748 mmHg 56%
    16:00 +29°C° 0 mm 5 mps 748 mmHg 57%
    17:00 +28°C° 0 mm 4 mps 748 mmHg 63%
    18:00 +26°C° 0 mm 4 mps 747 mmHg 68%
    19:00 +25°C° 0 mm 4 mps 747 mmHg 74%
    20:00 +23°C° 0 mm 4 mps 747 mmHg 73%
    21:00 +22°C° 0 mm 4 mps 747 mmHg 72%
    22:00 +21°C° 0 mm 5 mps 746 mmHg 71%
    23:00 +21°C° 0 mm 4 mps 746 mmHg 75%

    1 July, Monday

    Time Temperature Precipitation Wind Pressure Humidity
    00:00 +20°C° 0 mm 4 mps 746 mmHg 78%
    01:00 +20°C° 0 mm 4 mps 746 mmHg 81%
    02:00 +19°C° 0 mm 4 mps 746 mmHg 84%
    03:00 +19°C° 0 mm 4 mps 746 mmHg 87%
    04:00 +18°C° 0 mm 3 mps 746 mmHg 91%
    05:00 +19°C° 0 mm 4 mps 746 mmHg 85%
    06:00 +20°C° 0 mm 4 mps 747 mmHg 80%
    07:00 +21°C° 0 mm 4 mps 747 mmHg 74%
    08:00 +21°C° 0 mm 5 mps 747 mmHg 69%
    09:00 +22°C° 0 mm 5 mps 747 mmHg 64%
    10:00 +23°C° 0 mm 6 mps 747 mmHg 60%
    11:00 +23°C° 0 mm 6 mps 747 mmHg 58%
    12:00 +25°C° 0 mm 5 mps 747 mmHg 56%
    13:00 +26°C° 0 mm 5 mps 747 mmHg 54%
    14:00 +26°C° 0 mm 5 mps 746 mmHg 55%
    15:00 +25°C° 0 mm 4 mps 746 mmHg 56%
    16:00 +25°C° 0 mm 4 mps 746 mmHg 57%
    17:00 +24°C° 0 mm 3 mps 745 mmHg 62%
    18:00 +22°C° 0 mm 3 mps 745 mmHg 68%
    19:00 +21°C° 0 mm 2 mps 745 mmHg 73%
    20:00 +20°C° 0 mm 2 mps 745 mmHg 74%
    21:00 +19°C° 0 mm 2 mps 745 mmHg 75%
    22:00 +18°C° 0 mm 2 mps 744 mmHg 77%
    23:00 +17°C° 0 mm 2 mps 744 mmHg 78%
    Show more